NRT165 KIAH-KLAX

Flight info

Callsign NRT165
Flight time N/A
Altitude 38000
Route PITZZ5 CRGER EWM J4 WLVRN ESTWD HLYWD1
Aircraft A321/M-SDE3FGHIRWY/LB1

Departure

Time N/A
Airport George Bush Intercontinental Airport (KIAH)

Arrival

Time 2026-04-26 15:25
Airport Los Angeles International Airport (KLAX)
Time Latitude Longitude Altitude Speed Heading
2026-04-26 14:59 34.12599 -116.07760 36839 ft 366 kts 260°
2026-04-26 15:00 34.12201 -116.11780 36210 ft 363 kts 261°
2026-04-26 15:00 34.11905 -116.14790 35540 ft 364 kts 261°
2026-04-26 15:00 34.11605 -116.17821 34856 ft 365 kts 261°
2026-04-26 15:00 34.11306 -116.20842 34093 ft 368 kts 261°
2026-04-26 15:01 34.11006 -116.23895 33254 ft 371 kts 261°
2026-04-26 15:01 34.10698 -116.26986 32366 ft 374 kts 260°
2026-04-26 15:01 34.10388 -116.30084 31472 ft 377 kts 260°
2026-04-26 15:01 34.10061 -116.33174 31069 ft 368 kts 260°
2026-04-26 15:02 34.09730 -116.36263 31056 ft 369 kts 261°
2026-04-26 15:02 34.09401 -116.39308 30937 ft 369 kts 260°
2026-04-26 15:02 34.09074 -116.42365 30704 ft 370 kts 261°
2026-04-26 15:02 34.08746 -116.45427 30473 ft 371 kts 260°
2026-04-26 15:03 34.08415 -116.48514 30242 ft 371 kts 261°
2026-04-26 15:03 34.08081 -116.51606 29855 ft 373 kts 261°
2026-04-26 15:03 34.07750 -116.54694 29271 ft 371 kts 261°
2026-04-26 15:03 34.07423 -116.57727 29091 ft 358 kts 261°
2026-04-26 15:04 34.07118 -116.60664 28765 ft 358 kts 261°
2026-04-26 15:04 34.06838 -116.63646 28183 ft 359 kts 262°
2026-04-26 15:04 34.06567 -116.66625 27636 ft 358 kts 261°
2026-04-26 15:04 34.06294 -116.69596 27094 ft 356 kts 262°
2026-04-26 15:05 34.06023 -116.72550 26578 ft 353 kts 262°
2026-04-26 15:05 34.05933 -116.73511 26409 ft 352 kts 262°
2026-04-26 15:05 34.05487 -116.78339 25555 ft 346 kts 262°
2026-04-26 15:05 34.05219 -116.81213 25046 ft 343 kts 262°
2026-04-26 15:06 34.04950 -116.84070 24553 ft 340 kts 263°
2026-04-26 15:06 34.04686 -116.86871 24064 ft 337 kts 263°
2026-04-26 15:06 34.04388 -116.89654 23571 ft 334 kts 261°
2026-04-26 15:06 34.04039 -116.92365 23081 ft 331 kts 261°
2026-04-26 15:07 34.03336 -116.97823 22136 ft 326 kts 261°
2026-04-26 15:07 34.02990 -117.00494 21664 ft 325 kts 261°
2026-04-26 15:07 34.02644 -117.03164 21202 ft 322 kts 261°
2026-04-26 15:08 34.02321 -117.05827 20762 ft 320 kts 262°
2026-04-26 15:08 34.02014 -117.08443 20330 ft 318 kts 262°
2026-04-26 15:08 34.01706 -117.11072 19890 ft 316 kts 262°
2026-04-26 15:08 34.01398 -117.13689 19439 ft 314 kts 262°
2026-04-26 15:09 34.01093 -117.16264 18999 ft 313 kts 262°
2026-04-26 15:09 34.00785 -117.18852 18558 ft 311 kts 262°
2026-04-26 15:09 34.00479 -117.21423 18114 ft 310 kts 262°
2026-04-26 15:09 34.00172 -117.23998 17679 ft 309 kts 262°
2026-04-26 15:10 33.99867 -117.26543 17236 ft 308 kts 262°
2026-04-26 15:10 33.99661 -117.28249 16921 ft 309 kts 263°
2026-04-26 15:10 33.99253 -117.31647 16303 ft 308 kts 263°
2026-04-26 15:10 33.98953 -117.34206 15824 ft 308 kts 263°
2026-04-26 15:11 33.98653 -117.36758 15362 ft 308 kts 263°
2026-04-26 15:11 33.98358 -117.39275 14910 ft 307 kts 264°
2026-04-26 15:11 33.98060 -117.41807 14481 ft 305 kts 264°
2026-04-26 15:11 33.97761 -117.44345 14026 ft 304 kts 264°
2026-04-26 15:12 33.97492 -117.46832 13605 ft 302 kts 267°
2026-04-26 15:12 33.97478 -117.49319 13431 ft 291 kts 274°
2026-04-26 15:12 33.97744 -117.51725 12965 ft 292 kts 281°
2026-04-26 15:12 33.98156 -117.54128 12507 ft 292 kts 282°
2026-04-26 15:13 33.98579 -117.56477 12082 ft 291 kts 282°
2026-04-26 15:13 33.99007 -117.58850 11662 ft 289 kts 282°
2026-04-26 15:13 33.99430 -117.61228 11254 ft 287 kts 282°
2026-04-26 15:13 33.99846 -117.63572 10839 ft 286 kts 282°
2026-04-26 15:14 34.00258 -117.65901 10425 ft 285 kts 281°
2026-04-26 15:14 34.00506 -117.68260 10138 ft 279 kts 273°
2026-04-26 15:14 34.00563 -117.70552 9915 ft 271 kts 272°
2026-04-26 15:14 34.00521 -117.72772 9684 ft 266 kts 264°
2026-04-26 15:15 34.00228 -117.74968 9350 ft 264 kts 262°
2026-04-26 15:15 33.99924 -117.77132 8995 ft 263 kts 263°
2026-04-26 15:15 33.99654 -117.79307 8639 ft 262 kts 264°
2026-04-26 15:15 33.99414 -117.81478 8286 ft 260 kts 264°
2026-04-26 15:16 33.99191 -117.83642 7937 ft 259 kts 264°
2026-04-26 15:16 33.98978 -117.85791 7585 ft 259 kts 264°
2026-04-26 15:16 33.98785 -117.87929 7240 ft 257 kts 266°
2026-04-26 15:16 33.98641 -117.90053 6902 ft 256 kts 266°
2026-04-26 15:17 33.98486 -117.92165 6692 ft 249 kts 265°
2026-04-26 15:17 33.98374 -117.93536 6553 ft 245 kts 265°
2026-04-26 15:17 33.98127 -117.96249 6267 ft 244 kts 264°
2026-04-26 15:17 33.97930 -117.98241 6049 ft 240 kts 264°
2026-04-26 15:18 33.97726 -118.00217 5805 ft 235 kts 264°
2026-04-26 15:18 33.97519 -118.02161 5595 ft 231 kts 264°
2026-04-26 15:18 33.97315 -118.04056 5422 ft 227 kts 264°
2026-04-26 15:18 33.97115 -118.05913 5209 ft 222 kts 264°
2026-04-26 15:19 33.96917 -118.07742 5024 ft 218 kts 263°
2026-04-26 15:19 33.96724 -118.09543 4752 ft 218 kts 263°
2026-04-26 15:19 33.96529 -118.11369 4455 ft 217 kts 263°
2026-04-26 15:19 33.96339 -118.13158 4160 ft 214 kts 264°
2026-04-26 15:20 33.96154 -118.14907 3882 ft 210 kts 264°
2026-04-26 15:20 33.95976 -118.16596 3595 ft 198 kts 264°
2026-04-26 15:20 33.95806 -118.18210 3330 ft 189 kts 264°
2026-04-26 15:20 33.95645 -118.19747 3084 ft 181 kts 264°
2026-04-26 15:21 33.95492 -118.21223 2854 ft 177 kts 264°
2026-04-26 15:21 33.95341 -118.22681 2693 ft 176 kts 264°
2026-04-26 15:21 33.95189 -118.24149 2490 ft 172 kts 264°
2026-04-26 15:21 33.95045 -118.25539 2227 ft 164 kts 264°
2026-04-26 15:22 33.94908 -118.26862 2012 ft 153 kts 264°
2026-04-26 15:22 33.94781 -118.28090 1780 ft 142 kts 264°
2026-04-26 15:22 33.94663 -118.29224 1563 ft 130 kts 264°
2026-04-26 15:22 33.94555 -118.30282 1396 ft 127 kts 264°
2026-04-26 15:23 33.94447 -118.31334 1242 ft 127 kts 264°
2026-04-26 15:23 33.94338 -118.32394 1100 ft 126 kts 264°
2026-04-26 15:23 33.94229 -118.33442 956 ft 126 kts 264°
2026-04-26 15:23 33.94133 -118.34488 790 ft 126 kts 263°
2026-04-26 15:24 33.94013 -118.35532 610 ft 125 kts 264°
2026-04-26 15:24 33.93909 -118.36565 453 ft 125 kts 264°
2026-04-26 15:24 33.93804 -118.37611 284 ft 124 kts 264°
2026-04-26 15:24 33.93696 -118.38641 127 ft 124 kts 264°
2026-04-26 15:25 33.93601 -118.39570 114 ft 92 kts 263°
2026-04-26 15:25 33.93570 -118.39914 120 ft 39 kts 263°
2026-04-26 15:25 33.93488 -118.40185 125 ft 10 kts 220°
2026-04-26 15:25 33.93424 -118.40166 124 ft 12 kts 105°
2026-04-26 15:26 33.93432 -118.40053 123 ft 14 kts 83°
2026-04-26 15:26 33.93447 -118.39919 121 ft 17 kts 82°
2026-04-26 15:26 33.93463 -118.39764 118 ft 19 kts 83°
2026-04-26 15:26 33.93481 -118.39592 115 ft 21 kts 83°
2026-04-26 15:27 33.93500 -118.39404 111 ft 23 kts 83°
2026-04-26 15:27 33.93519 -118.39209 110 ft 23 kts 84°
2026-04-26 15:27 33.93534 -118.39052 109 ft 18 kts 83°
2026-04-26 15:27 33.93551 -118.38893 108 ft 19 kts 83°
2026-04-26 15:28 33.93568 -118.38728 108 ft 20 kts 83°
2026-04-26 15:28 33.93584 -118.38566 106 ft 9 kts 86°
2026-04-26 15:28 33.93571 -118.38518 106 ft 7 kts 142°
2026-04-26 15:28 33.93521 -118.38506 106 ft 5 kts 178°
2026-04-26 15:29 33.93497 -118.38538 106 ft 6 kts 264°
2026-04-26 15:29 33.93497 -118.38587 107 ft 3 kts 270°
2026-04-26 15:29 33.93497 -118.38592 107 ft 0 kts 270°